Regional Weather Roundup
Issued by NWS

Home | Current Version | Previous Version | Graphics & Text | Print | Product List | Glossary On
Versions: 1 2 3 4 5 6 7 8 9 10 11 12 13 14 15 16 17 18 19 20 21 22 23 24 25 26 27 28 29 30 31 32 33 34 35 36 37 38 39 40 41 42 43 44 45 46 47 48 49 50
000
ASUS45 KABQ 270210
RWRNM
NEW MEXICO REGIONAL WEATHER ROUNDUP
NATIONAL WEATHER SERVICE ALBUQUERQUE NM
800 PM MDT TUE MAY 26 2015

NOTE: "FAIR" MEANS FEW OR NO CLOUDS BELOW 12,000 FEET AGL WITH NO
       SIGNIFICANT WEATHER OR OBSTRUCTIONS TO VISION.

      THIS PRODUCT IS RELEASED AS TWO VERSIONS.  ONE VERSION NEAR
      THE TOP OF THE HOUR CONTAINING PRELIMINARY DATA FROM ALBUQUERQUE
      AND OTHER STATIONS.  A FINAL VERSION WITH ADDITIONAL DATA IS
      ISSUED ABOUT 10 MINUTES AFTER THE HOUR.

NMZ501-503-504-510>518-270300-
NORTHWEST PLATEAU/NORTHCENTRAL MOUNTAINS

CITY           SKY/WX    TMP DP  RH WIND       PRES   REMARKS
FARMINGTON     MOCLDY    66  38  35 S9        30.07R
LOS ALAMOS     PTCLDY    64  30  28 W6        30.17R
SANTA FE       CLEAR     66  34  30 SW10      30.10R
TAOS           PTCLDY    61  28  29 NW8       30.15R
ANGEL FIRE     FAIR      56  31  38 SW8G17    30.21R

$$
NMZ402-403-502-505>509-270300-
WESTCENTRAL MOUNTAINS/SOUTHWEST MOUNTAINS

CITY           SKY/WX    TMP DP  RH WIND       PRES   REMARKS
GALLUP         CLEAR     65  33  30 W8        30.11S
GRANTS         PTCLDY    68  28  22 W9        30.13R
SILVER CITY      N/A     73  25  16 NW12      30.09R

$$
NMZ407-409-411-412-270300-
SOUTHERN DESERTS

CITY           SKY/WX    TMP DP  RH WIND       PRES   REMARKS
LORDSBURG      FAIR      81  18   9 W8        29.99S
DEMING         PTCLDY    81  21  11 W7        29.99R
LAS CRUCES     CLEAR     80  23  12 SW6       30.02S
HOLLOMAN AFB   CLEAR     80  34  19 SE3       29.99R
ALAMOGORDO     CLEAR     75  32  20 SE5       30.01S
T OR C         CLEAR     80  22  11 S13       29.99R

$$
NMZ519>523-270300-
CENTRAL VALLEYS/CENTRAL HIGHLANDS

CITY           SKY/WX    TMP DP  RH WIND       PRES   REMARKS
ALBUQUERQUE    PTCLDY    73  38  27 S5        30.05S
DOUBLE EAGLE   MOCLDY    68  45  42 CALM      30.09R
MORIARTY ARPT  FAIR      67  36  31 SW5       30.12S
CLINES CORNERS PTCLDY    62  35  36 W10       30.15R
BELEN          CLOUDY    73  37  27 S10       30.06R
SOCORRO        FAIR      75  34  22 S6        30.01S

$$
NMZ524>526-539-540-270300-
SOUTHCENTRAL MOUNTAINS

CITY           SKY/WX    TMP DP  RH WIND       PRES   REMARKS
RUIDOSO        PTCLDY    63  32  31 SW8       30.20R

$$
NMZ527>531-270300-
NORTHEAST HIGHLANDS/NORTHEAST PLAINS

CITY           SKY/WX    TMP DP  RH WIND       PRES   REMARKS
LAS VEGAS      PTCLDY    62  37  39 W10       30.12R
RATON          MOCLDY    59  44  57 N9        30.07S
CLAYTON        CLOUDY    63  52  67 E8        30.05R

$$
NMZ532>537-270300-
EASTCENTRAL PLAINS

CITY           SKY/WX    TMP DP  RH WIND       PRES   REMARKS
TUCUMCARI      PTCLDY    70  52  52 SE7       29.98R
CANNON AFB     PTCLDY    74  47  38 SE1       30.01S
CLOVIS AIRPORT PTCLDY    68  54  60 E7          N/A

$$
NMZ028-029-538-270300-
SOUTHEAST PLAINS

CITY           SKY/WX    TMP DP  RH WIND       PRES   REMARKS
ROSWELL        CLEAR     75  43  31 E6        29.96R
ARTESIA        CLEAR     81  34  18 SW9       29.96R
CARLSBAD       CLEAR     77  38  24 SW8       29.93R
HOBBS          PTCLDY    72  50  46 CALM      29.99F


$$


USA.gov is the U.S. government's official web portal to all federal, state and local government web resources and services.